Regional Weather Roundup
Issued by NWS

Home | Current Version | Previous Version | Graphics & Text | Print | Product List | Glossary On
Versions: 1 2 3 4 5 6 7 8 9 10 11 12 13 14 15 16 17 18 19 20 21 22 23 24 25 26 27 28 29 30 31 32 33 34 35 36 37 38 39 40 41 42 43 44 45 46 47 48 49 50
000
ASUS43 KLOT 010610
RWRIL

ILLINOIS REGIONAL WEATHER ROUNDUP
NATIONAL WEATHER SERVICE CHICAGO/ROMEOVILLE IL
1200 AM CST SUN FEB 01 2015

NOTE: "FAIR" INDICATES FEW OR NO CLOUDS BELOW 12,000 FEET WITH NO
SIGNIFICANT WEATHER AND/OR OBSTRUCTIONS TO VISIBILITY.

* THESE STATIONS ARE NOT UNDER NWS QUALITY CONTROL. THEY ALSO MAY NOT
  REPORT WEATHER SUCH AS PRECIPITATION OR FOG.

ILZ001-002-007-009-015-016-024-010700-
NORTHWEST ILLINOIS

CITY           SKY/WX    TMP DP  RH WIND       PRES   REMARKS
MOLINE         LGT SNOW  32  30  92 E7        30.05F VSB 1   WCI  26
6HR MIN TEMP:  32; 6HR MAX TEMP:  34; 6HR PCP:  0.27;

STERLING*        N/A    N/A N/A N/A MISG        N/A
SAVANNA*       LGT SNOW  33  32  96 E6        30.08F WCI  27
$$

ILZ003-004-008-010-011-017-018-010700-
NORTH CENTRAL ILLINOIS

CITY           SKY/WX    TMP DP  RH WIND       PRES   REMARKS
ROCKFORD       LGT SNOW  31  28  89 E10       30.13F VSB 1   WCI  22
6HR MIN TEMP:  31; 6HR MAX TEMP:  35; 6HR PCP:  0.14;

FREEPORT*      LGT SNOW  30  29  96 E9        30.12F VSB 3/4 WCI  21
ROCHELLE*      LGT SNOW  32  32 100 E5        30.11F WCI  27
DE KALB*       LGT SNOW  30  29  98 E9        30.12F VSB 1   WCI  21
PERU*          LGT SNOW  33  33  99 SE5       30.11F WCI  28
$$

ILZ005-006-012>014-019>023-010700-
NORTHEAST ILLINOIS

CITY           SKY/WX    TMP DP  RH WIND       PRES   REMARKS
CHICAGO-OHARE  LGT SNOW  30  29  96 NE8       30.14F VSB 3/4 WCI  22
6HR MIN TEMP:  30; 6HR MAX TEMP:  35; 6HR PCP:  0.12;

CHICAGO-MIDWAY LGT SNOW  33  31  92 E8        30.14F VSB 1   WCI  26
6HR MIN TEMP:  33; 6HR MAX TEMP:  38; 6HR PCP:  0.12;

AURORA         LGT SNOW  33  30  88 E3        30.13F VSB 3/4
6HR MIN TEMP:  33; 6HR MAX TEMP:  35; 6HR PCP:  0.08;

LANSING*       LGT SNOW  32  32 100 CALM      30.15F VSB 1
JOLIET*        MIX PCPN  32  32  99 CALM      30.14F VSB 1/2
WAUKEGAN       LGT SNOW  30  29  96 NE8       30.15F VSB 3/4 WCI  22
6HR MIN TEMP:  30; 6HR MAX TEMP:  32; 6HR PCP: TRACE;

DUPAGE AIRPORT LGT SNOW  31  29  92 E9        30.12F FOG     WCI  23
6HR MIN TEMP:  31; 6HR MAX TEMP:  34; 6HR PCP:  0.10;

KANKAKEE*      LGT SNOW  32  32  99 S5        30.15F WCI  28
WHEELING       LGT SNOW  31  29  92 NE5       30.17F VSB 1   WCI  26
6HR MIN TEMP:  30; 6HR MAX TEMP:  35; 6HR PCP: TRACE;

MORRIS*        LGT SNOW  32  32 100 SE3       30.13F VSB 3/4
ROMEOVILLE*    LGT SNOW  32  32 100 CALM      30.13F VSB 3/4
NORTHERLY ISL    N/A     31  30  96 NE9         N/A  WCI  23
$$

LMZ740>746-010700-
SOUTHERN LAKE MICHIGAN

STATION/POSITION SKY/WX   TEMP    WIND        PRES    VSBY  WAVE
                          AIR SEA DIR/SP/G                  HT/PER
                          (F)     (DEG/KT/KT) (MB)    (MI)  (FT/S)
WAUKEGAN HARBOR            30      60/ 12/ 14   N/A
HARRISON CRIB              31      60/  9/ 10   N/A
BURNHAM HARBOR             31      40/  8/  9   N/A
CALUMET HARBOR             31      50/  6/  8   N/A
MICHIGAN CITY              30      30/ 12/ 13   N/A
$$

ILZ025>027-034>036-040-047-049-050-058-095>099-010700-
WEST-CENTRAL ILLINOIS

CITY           SKY/WX    TMP DP  RH WIND       PRES   REMARKS
QUINCY         LGT SNOW  33  31  92 E9        29.99F FOG     WCI  25
GALESBURG*     MIX PCPN  32  32 100 SE7       30.05F WCI  26
MACOMB*        LGT SNOW  32  32 100 SE7       30.07F WCI  26
JACKSONVILLE*  CLOUDY    37  34  91 E12G18    30.04F WCI  29
PITTSFIELD*    CLOUDY    36  32  85 E7        30.01F WCI  31
$$

ILZ028>032-037-038-041>044-048-051>054-059>061-010700-
CENTRAL ILLINOIS

CITY           SKY/WX    TMP DP  RH WIND       PRES   REMARKS
PONTIAC        LGT SNOW  33  33 100 SE6       30.13F WCI  28
BLOOMINGTON    MIX PCPN  33  33 100 S8        30.10F FOG     WCI  26
DECATUR        CLOUDY    34  32  92 SE7       30.11F WCI  28
PEORIA         LGT SNOW  34  32  92 SE5       30.08F FOG     WCI  30
6HR MIN TEMP:  34; 6HR MAX TEMP:  36; 6HR PCP:  0.18;

LACON*         LGT SNOW  32  31  97 S3        30.09F
LINCOLN*       RAIN      34  33  95 SE5       30.11F WCI  30
SPRINGFIELD    LGT RAIN  34  32  92 E10       30.07F FOG     WCI  26
6HR MIN TEMP:  34; 6HR MAX TEMP:  36; 6HR PCP:  0.14;

TAYLORVILLE    CLOUDY    34  32  93 E12       30.06F WCI  25
$$

ILZ033-039-045-046-055>057-062-063-010700-
EAST-CENTRAL ILLINOIS

CITY           SKY/WX    TMP DP  RH WIND       PRES   REMARKS
CHAMPAIGN      CLOUDY    33  32  96 E6        30.12F FOG     WCI  28
DANVILLE*      LGT SNOW  32  32 100 CALM      30.13F
RANTOUL*       LGT RAIN  34  33  97 S6        30.14F WCI  29
MATTOON        CLOUDY    33  30  88 SE7       30.12F WCI  27
PARIS*         CLOUDY    33  33  99 E6        30.13F FOG     WCI  27
$$

ILZ079-100>102-010700-
SOUTHWEST ILLINOIS

CITY           SKY/WX    TMP DP  RH WIND       PRES   REMARKS
ALTON          CLOUDY    37  27  65 E12       30.01F WCI  30
BELLEVILLE     CLOUDY    38  28  69 E15       30.01F WCI  29
CAHOKIA*       CLOUDY    39  27  62 S6        30.04F WCI  35
SPARTA*        CLOUDY    38  26  63 SE8       30.05F WCI  32
$$

ILZ064>066-069>071-074>076-080>082-084>086-088>090-092>094-010700-
SOUTH-CENTRAL ILLINOIS

CITY           SKY/WX    TMP DP  RH WIND       PRES   REMARKS
CARBONDALE     CLOUDY    39  25  57 SE7       30.07F WCI  34
6HR MIN TEMP:  37; 6HR MAX TEMP:  40;

CAIRO*         CLOUDY    42  29  60 E6        30.08F
EFFINGHAM*     CLOUDY    36  27  69 E12       30.11F WCI  27
MARION         CLOUDY    41  25  52 E5        30.08F
MT. VERNON     CLOUDY    37  25  60 NE6       30.09F WCI  33
CENTRALIA*     CLOUDY    37  26  64 SE8       30.06F WCI  31
SALEM*         CLOUDY    39  28  64 SE7       30.09F WCI  34
METROPOLIS*    CLOUDY    41  26  55 E3        30.08F
$$

ILZ067-068-072-073-078-083-087-091-010700-
SOUTHEAST ILLINOIS

CITY           SKY/WX    TMP DP  RH WIND       PRES   REMARKS
LAWRENCEVILLE  CLOUDY    36  28  73 CALM      30.15F
FLORA*         CLOUDY    36  28  72 E5        30.10F WCI  32
FAIRFIELD*     CLOUDY    38  28  67 E6        30.09F WCI  33
HARRISBURG*    CLOUDY    38  28  68 E6        30.10F WCI  33
ROBINSON*      CLOUDY    34  30  85 CALM      30.16F
CARMI*         CLOUDY    38  32  76 E7        30.11F WCI  33
$$

ABBREVIATIONS USED IN REMARKS
   TC - TEMPERATURE IN CELSIUS
  WCI - WIND CHILL INDEX
   HX - HEAT INDEX
  VSB - VISIBILITY
$$




USA.gov is the U.S. government's official web portal to all federal, state and local government web resources and services.